Wind_Speed
2 2 1 1 1 1 1 1 1 1 2 2 2 2 2 3 3 3 3 3 4 4 4 4 4 5 6 6 6 6 6 6 7 7 8 9 9 11 11 12 12 12 12
2 2 1 1 1 1 1 1 2 2 3 3 3 3 3 4 4 4 4 4 4 4 4 4 5 5 6 6 7 7 7 7 8 9 9 10 10 10 11 12 12 12 12
2 1 1 1 1 1 2 3 3 4 4 4 4 5 5 5 5 5 5 5 5 5 4 5 5 5 6 6 6 7 7 7 7 8 9 10 11 11 12 12 13 13 12
2 1 2 2 2 3 3 4 4 5 5 5 5 6 6 6 6 6 6 6 6 6 5 5 6 6 6 6 6 7 8 8 8 8 9 10 11 11 12 12 13 14 13
2 3 3 3 3 4 4 5 5 5 5 5 5 6 6 7 7 6 6 7 7 7 6 6 6 6 7 7 7 7 8 8 9 9 9 10 11 12 13 13 13 13 14
3 4 4 4 4 4 5 5 5 6 6 5 6 6 6 6 6 6 7 7 7 6 7 7 7 7 7 8 8 9 9 9 9 10 10 11 12 12 13 13 13 14 14
5 5 5 5 5 5 5 4 5 5 5 6 6 6 6 6 6 7 7 7 7 7 7 7 7 8 8 9 9 10 10 11 10 10 10 11 12 12 13 13 14 14 14
5 5 5 5 5 5 5 4 4 5 5 6 6 6 6 6 6 6 7 7 7 7 7 8 8 9 9 9 10 10 11 11 11 11 11 11 12 12 12 12 13 13 13
5 5 5 5 5 5 5 5 5 5 5 6 6 6 6 6 6 6 7 7 7 7 7 8 8 8 9 9 9 10 10 11 11 11 11 11 11 10 11 11 12 12 12
5 4 5 5 5 5 5 5 5 5 6 6 6 6 7 7 7 7 7 7 8 7 7 8 8 9 9 9 9 9 10 10 10 10 10 10 10 10 10 10 10 11 10
5 4 4 5 5 5 5 5 5 5 6 6 7 7 7 8 8 8 8 8 8 7 7 7 8 8 8 9 9 9 9 9 9 9 10 10 10 10 10 10 10 10 10
5 5 5 5 5 5 5 5 5 6 6 7 7 8 8 7 7 8 8 7 8 7 7 7 7 7 7 8 9 9 8 9 8 8 9 9 9 9 10 10 10 10 10
6 6 6 5 6 6 6 6 6 6 6 6 7 7 7 7 8 7 8 8 8 8 7 8 8 7 8 9 9 9 9 9 8 7 7 8 8 7 8 8 10 10 10
6 6 6 6 6 6 6 6 6 6 6 6 7 8 7 8 8 8 8 8 8 8 8 7 8 7 8 8 9 9 9 9 9 7 7 7 8 7 7 7 8 9 10
6 6 5 5 5 6 6 6 6 7 6 6 7 7 7 8 9 9 9 8 8 8 8 8 9 8 8 8 9 9 9 9 9 10 8 7 7 7 7 7 8 9 10
7 7 7 6 6 6 6 7 7 6 6 6 7 8 8 9 9 9 9 9 9 8 8 9 8 8 8 9 9 10 10 9 10 11 10 9 9 8 7 7 7 8 9
8 8 8 8 7 7 8 8 8 8 8 8 8 9 9 9 9 9 9 9 9 9 9 10 9 9 9 9 9 10 10 10 10 10 10 9 9 9 9 8 8 9 9
9 9 9 9 9 9 9 9 9 9 9 9 9 10 10 10 10 10 10 9 9 9 10 10 10 10 10 10 10 10 10 10 10 10 10 10 10 9 9 9 9 10 11
10 10 9 9 10 10 10 11 11 11 11 11 11 11 11 11 10 10 10 11 10 10 10 11 11 11 10 10 11 11 11 11 12 12 12 11 11 11 11 10 11 11 12
11 11 11 11 11 11 11 12 12 13 12 12 12 12 12 12 11 11 11 11 11 11 11 12 12 11 11 11 11 11 12 12 12 13 13 13 12 12 12 12 12 13 12
12 12 12 12 12 12 12 12 13 13 13 13 13 13 13 13 13 12 12 12 12 12 12 12 13 13 12 12 12 12 12 12 13 13 13 13 14 13 13 13 13 13 13
13 13 13 13 13 13 13 14 14 14 14 13 13 13 13 13 13 13 13 13 13 13 13 13 13 14 14 14 14 13 13 13 14 14 14 14 14 14 13 13 14 13 13
14 15 15 15 15 15 15 15 15 15 15 14 14 14 14 14 14 14 13 13 13 13 14 14 14 14 14 14 15 15 14 14 15 15 16 15 14 15 14 14 13 13 14
16 16 16 16 16 16 16 16 16 15 16 16 16 16 15 15 15 15 15 14 14 14 14 15 15 15 15 15 15 15 16 16 16 16 16 16 16 15 15 15 14 14 14
17 17 17 17 17 17 17 17 16 17 17 17 17 17 17 17 16 16 16 16 16 16 16 16 17 17 17 17 17 17 17 17 17 17 17 17 17 17 16 16 17 16 16
17 18 18 19 19 19 19 18 18 18 18 18 18 19 18 18 18 18 17 18 18 18 18 19 19 19 19 19 19 19 19 19 19 19 19 18 18 18 18 18 18 18 18
Wind_Direction
139 140 154 145 124 116 110 85 46 2 342 349 344 333 336 333 323 323 323 318 311 302 289 285 280 280 281 284 289 284 277 275 272 270 267 262 259 259 258 258 258 258 258
168 148 148 169 191 240 236 263 287 308 318 321 324 318 318 318 313 313 309 305 302 300 293 286 286 288 284 285 284 280 277 276 274 269 269 268 264 261 258 261 260 260 260
189 182 171 193 251 266 257 268 272 288 299 306 307 311 308 306 302 299 298 300 301 297 294 289 286 286 284 281 280 277 275 272 273 272 268 268 264 261 259 261 259 260 263
221 244 266 286 284 280 269 271 278 289 295 300 302 303 299 297 295 294 292 293 292 290 287 288 289 286 282 281 282 281 276 272 274 274 272 270 267 265 263 263 259 256 258
250 267 272 280 284 282 280 276 279 288 293 296 301 304 303 297 294 291 293 294 294 291 285 286 286 282 282 285 286 288 282 280 278 277 275 279 275 271 268 266 258 254 255
263 277 278 279 281 283 284 282 283 288 291 291 297 303 307 306 295 292 294 296 298 293 287 285 284 280 280 280 280 283 283 286 284 284 282 282 277 268 266 266 260 256 254
267 272 277 279 280 284 286 285 288 291 294 294 296 300 305 302 294 290 288 293 299 297 289 284 281 282 281 280 282 284 285 287 282 286 284 283 281 273 268 265 261 259 256
268 272 275 275 279 282 286 285 283 284 291 296 297 300 305 308 298 290 289 292 293 292 289 284 282 283 282 283 286 286 284 282 282 284 285 287 283 276 270 266 261 260 257
268 272 275 272 275 282 287 288 289 288 289 293 298 299 303 307 306 299 293 291 290 288 287 287 286 284 286 286 288 290 288 283 282 283 285 287 284 277 271 266 261 258 257
265 273 277 274 276 279 287 289 292 299 297 292 298 301 307 309 306 301 299 296 291 287 287 288 288 285 288 289 288 289 290 288 286 287 287 286 283 280 274 265 259 257 256
264 270 271 271 277 279 283 285 289 296 299 302 305 309 314 314 309 307 302 299 295 290 288 290 294 289 285 286 290 294 294 290 287 286 287 287 286 285 280 269 260 257 253
259 267 268 271 273 276 281 283 283 287 294 300 304 307 311 311 310 309 307 304 304 296 292 295 297 290 287 287 291 292 295 294 288 286 287 287 285 285 281 270 258 254 252
262 265 265 268 270 273 276 280 281 285 292 298 300 304 308 310 309 306 305 306 306 304 299 298 295 288 286 286 291 296 297 293 290 291 287 287 289 290 282 266 256 251 250
262 258 257 260 266 270 273 276 282 287 293 301 304 302 302 307 307 304 302 304 299 300 300 300 296 289 289 291 293 298 298 295 293 295 285 285 288 288 281 266 258 253 253
255 253 258 258 263 270 271 274 282 287 290 299 304 300 302 306 306 304 304 301 297 296 295 294 291 286 284 288 290 294 292 291 293 292 284 284 287 284 274 266 262 255 256
255 257 261 264 267 270 271 276 284 290 292 299 305 303 305 305 305 303 303 303 299 295 292 291 290 289 287 290 290 290 289 290 293 293 287 280 279 278 276 273 267 264 264
256 258 263 267 271 270 272 275 280 286 290 295 298 303 304 305 305 305 303 300 299 297 295 293 289 289 288 290 292 290 289 288 291 294 295 288 280 275 271 269 269 270 270
257 259 261 265 269 271 271 274 279 283 288 291 294 298 301 302 303 303 302 299 295 293 294 294 292 289 289 290 290 290 289 289 290 293 295 291 282 273 274 268 266 269 268
261 262 262 265 269 271 272 274 276 279 284 288 291 293 297 298 300 300 299 295 292 290 292 293 290 289 288 289 290 288 287 286 286 288 289 289 287 280 278 274 274 271 272
263 263 264 267 269 272 273 275 276 278 281 285 289 292 293 295 296 295 292 291 292 289 291 293 288 287 287 287 288 288 286 285 286 286 287 287 286 280 280 279 276 273 276
266 266 266 267 270 273 273 275 278 280 281 284 287 289 292 293 293 291 288 288 290 291 293 293 290 287 287 287 286 285 286 286 284 285 286 285 285 281 276 275 275 273 273
268 269 270 269 270 271 274 275 279 281 280 281 283 285 287 290 291 288 286 285 284 286 289 290 291 289 286 286 286 286 286 288 287 287 286 286 285 283 280 277 272 272 272
269 271 272 272 271 273 276 277 278 280 279 281 281 282 283 284 287 286 285 285 284 286 288 288 288 289 289 287 286 286 285 285 286 287 286 285 284 283 281 279 275 272 271
270 271 272 273 273 274 276 277 277 278 279 280 281 281 281 281 282 281 282 283 283 285 287 288 289 289 288 288 286 286 286 287 287 288 287 285 283 282 280 279 276 273 273
272 271 271 273 274 274 275 277 278 278 278 279 279 279 279 278 278 280 280 281 283 284 285 286 287 287 286 286 287 287 288 287 287 287 286 283 283 282 280 277 274 274 274
274 273 273 273 274 275 276 277 278 278 278 279 279 279 277 276 277 279 280 281 284 284 284 284 284 284 284 284 284 284 284 284 285 285 284 281 280 280 280 279 276 275 275
Height
5881 5880 5879 5879 5879 5879 5878 5878 5877 5877 5876 5875 5874 5874 5874 5873 5872 5871 5870 5869 5869 5868 5868 5867 5867 5866 5866 5865 5864 5864 5863 5863 5862 5862 5862 5862 5862 5862 5862 5861 5861 5862 5861
5880 5880 5879 5879 5879 5878 5878 5878 5877 5877 5876 5875 5874 5874 5873 5872 5871 5870 5870 5869 5868 5867 5867 5866 5866 5865 5864 5864 5863 5862 5862 5861 5861 5860 5860 5860 5860 5860 5860 5859 5859 5859 5859
5880 5880 5879 5879 5878 5878 5878 5877 5877 5876 5875 5875 5874 5873 5872 5871 5871 5870 5869 5868 5867 5867 5866 5865 5864 5864 5863 5863 5862 5861 5860 5860 5860 5859 5858 5858 5858 5857 5857 5857 5857 5857 5857
5880 5879 5879 5878 5878 5877 5877 5877 5876 5876 5875 5874 5873 5872 5871 5870 5870 5869 5868 5867 5867 5866 5865 5864 5864 5863 5862 5862 5861 5860 5859 5858 5858 5857 5856 5856 5855 5855 5855 5855 5855 5855 5855
5879 5879 5878 5878 5877 5877 5876 5876 5875 5875 5874 5873 5872 5871 5870 5869 5868 5868 5867 5866 5865 5865 5864 5863 5863 5862 5861 5860 5859 5859 5858 5857 5856 5855 5854 5853 5853 5852 5852 5852 5852 5852 5853
5878 5878 5877 5877 5876 5876 5875 5875 5875 5874 5873 5872 5871 5870 5869 5868 5867 5866 5866 5865 5864 5864 5863 5862 5862 5861 5860 5859 5858 5857 5856 5855 5854 5853 5852 5851 5850 5850 5849 5849 5849 5849 5850
5877 5877 5876 5876 5875 5875 5874 5874 5874 5873 5872 5871 5871 5870 5868 5867 5866 5866 5865 5864 5863 5863 5862 5861 5861 5860 5859 5858 5857 5856 5855 5854 5852 5851 5850 5849 5848 5847 5846 5845 5845 5846 5847
5876 5876 5875 5875 5874 5874 5873 5873 5873 5872 5871 5870 5869 5869 5868 5866 5865 5865 5864 5863 5862 5861 5860 5860 5859 5858 5857 5856 5855 5854 5853 5852 5851 5850 5848 5847 5846 5844 5842 5841 5842 5843 5844
5875 5875 5874 5874 5874 5873 5873 5872 5872 5871 5870 5869 5868 5867 5866 5865 5864 5863 5862 5861 5861 5860 5859 5858 5857 5856 5855 5854 5853 5852 5851 5850 5849 5848 5846 5845 5843 5841 5839 5838 5839 5840 5841
5874 5874 5873 5873 5873 5872 5872 5871 5871 5870 5869 5868 5867 5866 5865 5864 5863 5862 5861 5860 5859 5858 5857 5857 5856 5855 5854 5853 5852 5851 5850 5848 5847 5846 5844 5843 5841 5839 5837 5837 5837 5838 5839
5873 5873 5873 5872 5872 5871 5871 5870 5870 5869 5868 5867 5866 5865 5864 5863 5861 5860 5859 5859 5858 5857 5856 5855 5854 5853 5852 5851 5850 5849 5848 5847 5845 5844 5842 5841 5839 5838 5836 5835 5835 5837 5838
5872 5872 5872 5871 5871 5870 5870 5869 5869 5868 5867 5866 5865 5864 5862 5861 5860 5859 5858 5857 5856 5855 5854 5853 5853 5852 5851 5850 5849 5848 5846 5845 5843 5842 5841 5839 5838 5836 5833 5831 5832 5834 5836
5871 5871 5870 5870 5870 5869 5869 5868 5867 5867 5866 5865 5863 5862 5861 5860 5859 5858 5857 5856 5855 5854 5853 5852 5851 5850 5849 5848 5847 5846 5845 5844 5842 5841 5839 5838 5836 5834 5830 5829 5830 5832 5834
5870 5869 5869 5869 5868 5868 5867 5867 5866 5865 5865 5863 5862 5861 5859 5859 5858 5857 5855 5854 5853 5852 5851 5850 5849 5849 5848 5847 5845 5844 5843 5842 5840 5839 5837 5836 5835 5832 5830 5828 5829 5831 5832
5868 5868 5868 5868 5867 5867 5866 5866 5865 5864 5863 5862 5861 5859 5858 5857 5856 5855 5854 5852 5851 5850 5850 5849 5848 5847 5846 5845 5844 5843 5841 5840 5838 5837 5836 5835 5834 5832 5831 5830 5830 5830 5831
5867 5867 5866 5866 5866 5865 5865 5864 5863 5862 5862 5861 5859 5858 5857 5856 5854 5853 5852 5851 5850 5849 5848 5847 5846 5845 5844 5843 5842 5841 5840 5838 5837 5836 5834 5833 5832 5831 5831 5830 5830 5830 5830
5865 5865 5865 5864 5864 5864 5863 5862 5862 5861 5860 5859 5858 5857 5855 5854 5852 5851 5850 5849 5848 5847 5846 5845 5844 5843 5842 5841 5840 5839 5838 5836 5835 5834 5833 5832 5831 5830 5830 5829 5829 5828 5828
5863 5863 5863 5862 5862 5862 5861 5860 5860 5859 5858 5857 5856 5855 5853 5852 5851 5849 5848 5847 5846 5845 5844 5843 5842 5841 5840 5839 5838 5837 5836 5834 5833 5832 5831 5830 5829 5828 5828 5827 5827 5826 5826
5860 5860 5860 5860 5860 5859 5859 5858 5857 5856 5856 5855 5853 5852 5851 5850 5849 5848 5846 5845 5844 5843 5842 5841 5840 5839 5838 5837 5836 5835 5834 5832 5831 5830 5829 5828 5827 5826 5826 5825 5825 5824 5823
5858 5858 5857 5857 5857 5856 5856 5855 5855 5854 5853 5852 5851 5850 5848 5847 5846 5845 5844 5843 5842 5841 5840 5838 5837 5836 5835 5834 5833 5832 5831 5830 5829 5828 5827 5826 5825 5824 5823 5822 5822 5821 5820
5855 5854 5854 5854 5853 5853 5853 5852 5852 5851 5850 5849 5848 5847 5845 5844 5843 5842 5841 5840 5839 5838 5837 5836 5835 5834 5833 5832 5831 5830 5828 5827 5826 5825 5824 5823 5822 5821 5819 5819 5818 5818 5817
5852 5851 5851 5851 5850 5850 5850 5849 5848 5848 5847 5846 5845 5844 5842 5841 5840 5839 5838 5837 5836 5835 5834 5833 5832 5831 5830 5828 5828 5827 5826 5825 5823 5822 5821 5820 5819 5818 5816 5815 5815 5814 5814
5849 5848 5848 5847 5847 5846 5846 5845 5845 5844 5843 5843 5842 5841 5839 5838 5837 5836 5835 5834 5833 5832 5831 5830 5829 5827 5826 5825 5824 5823 5822 5822 5820 5819 5817 5816 5815 5814 5813 5812 5811 5811 5810
5845 5844 5844 5844 5843 5843 5842 5841 5841 5840 5840 5839 5838 5837 5836 5835 5834 5833 5832 5831 5830 5829 5828 5826 5825 5824 5823 5822 5820 5820 5819 5817 5817 5815 5814 5812 5811 5810 5809 5808 5807 5807 5806
5841 5840 5840 5839 5839 5838 5838 5837 5837 5836 5835 5834 5834 5833 5832 5831 5830 5829 5828 5827 5826 5825 5823 5822 5821 5820 5819 5818 5817 5816 5815 5813 5812 5811 5810 5809 5807 5806 5805 5804 5803 5802 5802
5836 5836 5835 5835 5834 5834 5833 5833 5832 5831 5830 5830 5829 5828 5827 5826 5825 5824 5823 5822 5821 5820 5819 5818 5817 5816 5814 5813 5812 5811 5810 5809 5808 5807 5805 5804 5803 5801 5800 5799 5798 5797 5797